Year,Month,Day,Hour,Minute,Value (Times are PST for temperature in C)
2017,09,05,00,00,20.00
2017,09,05,00,01,20.00
2017,09,05,00,02,19.90
2017,09,05,00,03,19.90
2017,09,05,00,04,19.80
2017,09,05,00,05,19.80
2017,09,05,00,06,19.80
2017,09,05,00,07,19.80
2017,09,05,00,08,19.70
2017,09,05,00,09,19.70
2017,09,05,00,10,19.80
2017,09,05,00,11,19.80
2017,09,05,00,12,19.80
2017,09,05,00,13,19.80
2017,09,05,00,14,19.80
2017,09,05,00,15,19.80
2017,09,05,00,16,19.80
2017,09,05,00,17,19.80
2017,09,05,00,18,19.80
2017,09,05,00,19,19.80
2017,09,05,00,20,19.80
2017,09,05,00,21,19.80
2017,09,05,00,22,19.80
2017,09,05,00,23,19.80
2017,09,05,00,24,19.80
2017,09,05,00,25,19.70
2017,09,05,00,26,19.70
2017,09,05,00,27,19.70
2017,09,05,00,28,19.70
2017,09,05,00,29,19.70
2017,09,05,00,30,19.70
2017,09,05,00,31,19.70
2017,09,05,00,32,19.70
2017,09,05,00,33,19.70
2017,09,05,00,34,19.80
2017,09,05,00,35,19.80
2017,09,05,00,36,19.80
2017,09,05,00,37,19.90
2017,09,05,00,38,19.90
2017,09,05,00,39,19.90
2017,09,05,00,40,19.90
2017,09,05,00,41,20.00
2017,09,05,00,42,20.00
2017,09,05,00,43,20.00
2017,09,05,00,44,19.90
2017,09,05,00,45,19.90
2017,09,05,00,46,19.90
2017,09,05,00,47,19.80
2017,09,05,00,48,19.80
2017,09,05,00,49,19.80
2017,09,05,00,50,19.70
2017,09,05,00,51,19.70
2017,09,05,00,52,19.70
2017,09,05,00,53,19.70
2017,09,05,00,54,19.60
2017,09,05,00,55,19.60
2017,09,05,00,56,19.60
2017,09,05,00,57,19.60
2017,09,05,00,58,19.60
2017,09,05,00,59,19.60
2017,09,05,01,00,19.50
2017,09,05,01,01,19.50
2017,09,05,01,02,19.50
2017,09,05,01,03,19.50
2017,09,05,01,04,19.50
2017,09,05,01,05,19.50
2017,09,05,01,06,19.50
2017,09,05,01,07,19.60
2017,09,05,01,08,19.60
2017,09,05,01,09,19.60
2017,09,05,01,10,19.60
2017,09,05,01,11,19.70
2017,09,05,01,12,19.70
2017,09,05,01,13,19.80
2017,09,05,01,14,19.80
2017,09,05,01,15,19.90
2017,09,05,01,16,19.90
2017,09,05,01,17,20.00
2017,09,05,01,18,20.00
2017,09,05,01,19,20.00
2017,09,05,01,20,20.10
2017,09,05,01,21,20.10
2017,09,05,01,22,20.10
2017,09,05,01,23,20.20
2017,09,05,01,24,20.20
2017,09,05,01,25,20.30
2017,09,05,01,26,20.30
2017,09,05,01,27,20.30
2017,09,05,01,28,20.30
2017,09,05,01,29,20.30
2017,09,05,01,30,20.30
2017,09,05,01,31,20.30
2017,09,05,01,32,20.30
2017,09,05,01,33,20.30
2017,09,05,01,34,20.30
2017,09,05,01,35,20.30
2017,09,05,01,36,20.40
2017,09,05,01,37,20.40
2017,09,05,01,38,20.50
2017,09,05,01,39,20.50
2017,09,05,01,40,20.60
2017,09,05,01,41,20.70
2017,09,05,01,42,20.80
2017,09,05,01,43,20.80
2017,09,05,01,44,20.80
2017,09,05,01,45,20.80
2017,09,05,01,46,20.80
2017,09,05,01,47,20.80
2017,09,05,01,48,20.80
2017,09,05,01,49,20.80
2017,09,05,01,50,20.70
2017,09,05,01,51,20.70
2017,09,05,01,52,20.70
2017,09,05,01,53,20.70
2017,09,05,01,54,20.70
2017,09,05,01,55,20.70
2017,09,05,01,56,20.70
2017,09,05,01,57,20.60
2017,09,05,01,58,20.60
2017,09,05,01,59,20.60
2017,09,05,02,00,20.50
2017,09,05,02,01,20.50
2017,09,05,02,02,20.40
2017,09,05,02,03,20.40
2017,09,05,02,04,20.30
2017,09,05,02,05,20.30
2017,09,05,02,06,20.30
2017,09,05,02,07,20.30
2017,09,05,02,08,20.30
2017,09,05,02,09,20.30
2017,09,05,02,10,20.30
2017,09,05,02,11,20.30
2017,09,05,02,12,20.30
2017,09,05,02,13,20.30
2017,09,05,02,14,20.20
2017,09,05,02,15,20.20
2017,09,05,02,16,20.20
2017,09,05,02,17,20.20
2017,09,05,02,18,20.20
2017,09,05,02,19,20.20
2017,09,05,02,20,20.10
2017,09,05,02,21,20.10
2017,09,05,02,22,20.10
2017,09,05,02,23,20.00
2017,09,05,02,24,20.00
2017,09,05,02,25,20.00
2017,09,05,02,26,20.00
2017,09,05,02,27,20.00
2017,09,05,02,28,19.90
2017,09,05,02,29,19.90
2017,09,05,02,30,19.90
2017,09,05,02,31,19.90
2017,09,05,02,32,20.00
2017,09,05,02,33,20.10
2017,09,05,02,34,20.30
2017,09,05,02,35,20.50
2017,09,05,02,36,20.60
2017,09,05,02,37,20.80
2017,09,05,02,38,21.00
2017,09,05,02,39,21.30
2017,09,05,02,40,21.50
2017,09,05,02,41,21.90
2017,09,05,02,42,22.10
2017,09,05,02,43,22.30
2017,09,05,02,44,22.50
2017,09,05,02,45,22.60
2017,09,05,02,46,22.80
2017,09,05,02,47,22.90
2017,09,05,02,48,23.00
2017,09,05,02,49,23.10
2017,09,05,02,50,23.10
2017,09,05,02,51,23.20
2017,09,05,02,52,23.30
2017,09,05,02,53,23.30
2017,09,05,02,54,23.40
2017,09,05,02,55,23.40
2017,09,05,02,56,23.30
2017,09,05,02,57,23.30
2017,09,05,02,58,23.20
2017,09,05,02,59,23.00
2017,09,05,03,00,22.90
2017,09,05,03,01,22.80
2017,09,05,03,02,22.80
2017,09,05,03,03,22.70
2017,09,05,03,04,22.60
2017,09,05,03,05,22.60
2017,09,05,03,06,22.60
2017,09,05,03,07,22.60
2017,09,05,03,08,22.60
2017,09,05,03,09,22.70
2017,09,05,03,10,22.80
2017,09,05,03,11,22.90
2017,09,05,03,12,23.00
2017,09,05,03,13,23.00
2017,09,05,03,14,23.10
2017,09,05,03,15,23.10
2017,09,05,03,16,23.10
2017,09,05,03,17,23.20
2017,09,05,03,18,23.20
2017,09,05,03,19,23.30
2017,09,05,03,20,23.40
2017,09,05,03,21,23.40
2017,09,05,03,22,23.40
2017,09,05,03,23,23.40
2017,09,05,03,24,23.40
2017,09,05,03,25,23.40
2017,09,05,03,26,23.40
2017,09,05,03,27,23.40
2017,09,05,03,28,23.30
2017,09,05,03,29,23.30
2017,09,05,03,30,23.30
2017,09,05,03,31,23.30
2017,09,05,03,32,23.30
2017,09,05,03,33,23.30
2017,09,05,03,34,23.20
2017,09,05,03,35,23.10
2017,09,05,03,36,23.00
2017,09,05,03,37,22.90
2017,09,05,03,38,22.80
2017,09,05,03,39,22.80
2017,09,05,03,40,22.80
2017,09,05,03,41,22.80
2017,09,05,03,42,22.80
2017,09,05,03,43,22.70
2017,09,05,03,44,22.70
2017,09,05,03,45,22.80
2017,09,05,03,46,22.80
2017,09,05,03,47,22.80
2017,09,05,03,48,22.90
2017,09,05,03,49,23.00
2017,09,05,03,50,23.00
2017,09,05,03,51,23.00
2017,09,05,03,52,23.00
2017,09,05,03,53,22.70
2017,09,05,03,54,22.50
2017,09,05,03,55,22.20
2017,09,05,03,56,22.00
2017,09,05,03,57,21.70
2017,09,05,03,58,21.40
2017,09,05,03,59,21.20
2017,09,05,04,00,21.00
2017,09,05,04,01,20.80
2017,09,05,04,02,20.80
2017,09,05,04,03,20.90
2017,09,05,04,04,20.90
2017,09,05,04,05,21.00
2017,09,05,04,06,21.20
2017,09,05,04,07,21.30
2017,09,05,04,08,21.60
2017,09,05,04,09,21.70
2017,09,05,04,10,21.90
2017,09,05,04,11,22.10
2017,09,05,04,12,22.20
2017,09,05,04,13,22.20
2017,09,05,04,14,22.10
2017,09,05,04,15,22.00
2017,09,05,04,16,21.90
2017,09,05,04,17,21.80
2017,09,05,04,18,21.80
2017,09,05,04,19,21.70
2017,09,05,04,20,21.60
2017,09,05,04,21,21.40
2017,09,05,04,22,21.20
2017,09,05,04,23,20.90
2017,09,05,04,24,20.70
2017,09,05,04,25,20.50
2017,09,05,04,26,20.40
2017,09,05,04,27,20.20
2017,09,05,04,28,20.10
2017,09,05,04,29,20.00
2017,09,05,04,30,19.90
2017,09,05,04,31,19.80
2017,09,05,04,32,19.60
2017,09,05,04,33,19.50
2017,09,05,04,34,19.40
2017,09,05,04,35,19.40
2017,09,05,04,36,19.30
2017,09,05,04,37,19.30
2017,09,05,04,38,19.30
2017,09,05,04,39,19.40
2017,09,05,04,40,19.40
2017,09,05,04,41,19.50
2017,09,05,04,42,19.50
2017,09,05,04,43,19.50
2017,09,05,04,44,19.50
2017,09,05,04,45,19.40
2017,09,05,04,46,19.40
2017,09,05,04,47,19.50
2017,09,05,04,48,19.70
2017,09,05,04,49,19.90
2017,09,05,04,50,20.10
2017,09,05,04,51,20.30
2017,09,05,04,52,20.40
2017,09,05,04,53,20.40
2017,09,05,04,54,20.40
2017,09,05,04,55,20.40
2017,09,05,04,56,20.40
2017,09,05,04,57,20.30
2017,09,05,04,58,20.20
2017,09,05,04,59,20.20
2017,09,05,05,00,20.10
2017,09,05,05,01,20.00
2017,09,05,05,02,19.90
2017,09,05,05,03,19.80
2017,09,05,05,04,19.80
2017,09,05,05,05,19.70
2017,09,05,05,06,19.60
2017,09,05,05,07,19.60
2017,09,05,05,08,19.50
2017,09,05,05,09,19.50
2017,09,05,05,10,19.40
2017,09,05,05,11,19.40
2017,09,05,05,12,19.40
2017,09,05,05,13,19.40
2017,09,05,05,14,19.40
2017,09,05,05,15,19.40
2017,09,05,05,16,19.40
2017,09,05,05,17,19.40
2017,09,05,05,18,19.40
2017,09,05,05,19,19.40
2017,09,05,05,20,19.40
2017,09,05,05,21,19.40
2017,09,05,05,22,19.40
2017,09,05,05,23,19.50
2017,09,05,05,24,19.50
2017,09,05,05,25,19.60
2017,09,05,05,26,19.60
2017,09,05,05,27,19.60
2017,09,05,05,28,19.70
2017,09,05,05,29,19.70
2017,09,05,05,30,19.80
2017,09,05,05,31,19.80
2017,09,05,05,32,19.80
2017,09,05,05,33,19.80
2017,09,05,05,34,19.70
2017,09,05,05,35,19.60
2017,09,05,05,36,19.50
2017,09,05,05,37,19.50
2017,09,05,05,38,19.40
2017,09,05,05,39,19.30
2017,09,05,05,40,19.30
2017,09,05,05,41,19.20
2017,09,05,05,42,19.20
2017,09,05,05,43,19.10
2017,09,05,05,44,19.10
2017,09,05,05,45,19.10
2017,09,05,05,46,19.10
2017,09,05,05,47,19.10
2017,09,05,05,48,19.10
2017,09,05,05,49,19.10
2017,09,05,05,50,19.10
2017,09,05,05,51,19.20
2017,09,05,05,52,19.20
2017,09,05,05,53,19.30
2017,09,05,05,54,19.30
2017,09,05,05,55,19.30
2017,09,05,05,56,19.30
2017,09,05,05,57,19.30
2017,09,05,05,58,19.30
2017,09,05,05,59,19.30
2017,09,05,06,00,19.30
2017,09,05,06,01,19.30
2017,09,05,06,02,19.30
2017,09,05,06,03,19.20
2017,09,05,06,04,19.20
2017,09,05,06,05,19.20
2017,09,05,06,06,19.20
2017,09,05,06,07,19.20
2017,09,05,06,08,19.20
2017,09,05,06,09,19.20
2017,09,05,06,10,19.20
2017,09,05,06,11,19.20
2017,09,05,06,12,19.20
2017,09,05,06,13,19.20
2017,09,05,06,14,19.20
2017,09,05,06,15,19.20
2017,09,05,06,16,19.20
2017,09,05,06,17,19.20
2017,09,05,06,18,19.20
2017,09,05,06,19,19.20
2017,09,05,06,20,19.20
2017,09,05,06,21,19.30
2017,09,05,06,22,19.30
2017,09,05,06,23,19.30
2017,09,05,06,24,19.20
2017,09,05,06,25,19.20
2017,09,05,06,26,19.10
2017,09,05,06,27,19.00
2017,09,05,06,28,18.90
2017,09,05,06,29,18.80
2017,09,05,06,30,18.70
2017,09,05,06,31,18.70
2017,09,05,06,32,18.60
2017,09,05,06,33,18.50
2017,09,05,06,34,18.40
2017,09,05,06,35,18.40
2017,09,05,06,36,18.30
2017,09,05,06,37,18.30
2017,09,05,06,38,18.30
2017,09,05,06,39,18.30
2017,09,05,06,40,18.40
2017,09,05,06,41,18.40
2017,09,05,06,42,18.40
2017,09,05,06,43,18.50
2017,09,05,06,44,18.50
2017,09,05,06,45,18.60
2017,09,05,06,46,18.70
2017,09,05,06,47,18.80
2017,09,05,06,48,18.80
2017,09,05,06,49,18.90
2017,09,05,06,50,18.90
2017,09,05,06,51,18.90
2017,09,05,06,52,18.90
2017,09,05,06,53,18.90
2017,09,05,06,54,19.00
2017,09,05,06,55,19.00
2017,09,05,06,56,19.00
2017,09,05,06,57,19.10
2017,09,05,06,58,19.30
2017,09,05,06,59,19.40
2017,09,05,07,00,19.50
2017,09,05,07,01,19.60
2017,09,05,07,02,19.80
2017,09,05,07,03,19.90
2017,09,05,07,04,20.10
2017,09,05,07,05,20.20
2017,09,05,07,06,20.30
2017,09,05,07,07,20.40
2017,09,05,07,08,20.60
2017,09,05,07,09,20.80
2017,09,05,07,10,21.00
2017,09,05,07,11,21.10
2017,09,05,07,12,21.20
2017,09,05,07,13,21.30
2017,09,05,07,14,21.30
2017,09,05,07,15,21.30
2017,09,05,07,16,21.30
2017,09,05,07,17,21.30
2017,09,05,07,18,21.30
2017,09,05,07,19,21.20
2017,09,05,07,20,21.10
2017,09,05,07,21,20.90
2017,09,05,07,22,20.80
2017,09,05,07,23,20.60
2017,09,05,07,24,20.40
2017,09,05,07,25,20.30
2017,09,05,07,26,20.20
2017,09,05,07,27,20.10
2017,09,05,07,28,20.00
2017,09,05,07,29,19.90
2017,09,05,07,30,19.90
2017,09,05,07,31,19.80
2017,09,05,07,32,19.70
2017,09,05,07,33,19.70
2017,09,05,07,34,19.60
2017,09,05,07,35,19.60
2017,09,05,07,36,19.50
2017,09,05,07,37,19.40
2017,09,05,07,38,19.40
2017,09,05,07,39,19.40
2017,09,05,07,40,19.30
2017,09,05,07,41,19.30
2017,09,05,07,42,19.20
2017,09,05,07,43,19.20
2017,09,05,07,44,19.10
2017,09,05,07,45,19.10
2017,09,05,07,46,19.00
2017,09,05,07,47,19.00
2017,09,05,07,48,18.90
2017,09,05,07,49,18.80
2017,09,05,07,50,18.80
2017,09,05,07,51,18.70
2017,09,05,07,52,18.70
2017,09,05,07,53,18.70
2017,09,05,07,54,18.60
2017,09,05,07,55,18.60
2017,09,05,07,56,18.50
2017,09,05,07,57,18.40
2017,09,05,07,58,18.30
2017,09,05,07,59,18.30
2017,09,05,08,00,18.30
2017,09,05,08,01,18.20
2017,09,05,08,02,18.20
2017,09,05,08,03,18.20
2017,09,05,08,04,18.20
2017,09,05,08,05,18.20
2017,09,05,08,06,18.20
2017,09,05,08,07,18.20
2017,09,05,08,08,18.20
2017,09,05,08,09,18.10
2017,09,05,08,10,18.10
2017,09,05,08,11,18.10
2017,09,05,08,12,18.20
2017,09,05,08,13,18.20
2017,09,05,08,14,18.20
2017,09,05,08,15,18.20
2017,09,05,08,16,18.20
2017,09,05,08,17,18.30
2017,09,05,08,18,18.30
2017,09,05,08,19,18.30
2017,09,05,08,20,18.40
2017,09,05,08,21,18.50
2017,09,05,08,22,18.50
2017,09,05,08,23,18.70
2017,09,05,08,24,18.80
2017,09,05,08,25,18.80
2017,09,05,08,26,18.90
2017,09,05,08,27,19.00
2017,09,05,08,28,19.10
2017,09,05,08,29,19.20
2017,09,05,08,30,19.20
2017,09,05,08,31,19.30
2017,09,05,08,32,19.30
2017,09,05,08,33,19.40
2017,09,05,08,34,19.40
2017,09,05,08,35,19.40
2017,09,05,08,36,19.40
2017,09,05,08,37,19.50
2017,09,05,08,38,19.50
2017,09,05,08,39,19.60
2017,09,05,08,40,19.70
2017,09,05,08,41,19.80
2017,09,05,08,42,19.80
2017,09,05,08,43,19.90
2017,09,05,08,44,20.00
2017,09,05,08,45,20.00
2017,09,05,08,46,20.10
2017,09,05,08,47,20.00
2017,09,05,08,48,20.00
2017,09,05,08,49,20.00
2017,09,05,08,50,19.90
2017,09,05,08,51,19.90
2017,09,05,08,52,20.00
2017,09,05,08,53,20.10
2017,09,05,08,54,20.20
2017,09,05,08,55,20.30
2017,09,05,08,56,20.30
2017,09,05,08,57,20.40
2017,09,05,08,58,20.40
2017,09,05,08,59,20.40
2017,09,05,09,00,20.40
2017,09,05,09,01,20.50
2017,09,05,09,02,20.60
2017,09,05,09,03,20.70
2017,09,05,09,04,20.80
2017,09,05,09,05,20.90
2017,09,05,09,06,20.90
2017,09,05,09,07,20.90
2017,09,05,09,08,20.90
2017,09,05,09,09,20.90
2017,09,05,09,10,20.90
2017,09,05,09,11,20.90
2017,09,05,09,12,20.90
2017,09,05,09,13,20.80
2017,09,05,09,14,20.70
2017,09,05,09,15,20.70
2017,09,05,09,16,20.60
2017,09,05,09,17,20.60
2017,09,05,09,18,20.60
2017,09,05,09,19,20.60
2017,09,05,09,20,20.60
2017,09,05,09,21,20.60
2017,09,05,09,22,20.60
2017,09,05,09,23,20.60
2017,09,05,09,24,20.70
2017,09,05,09,25,20.70
2017,09,05,09,26,20.80
2017,09,05,09,27,20.80
2017,09,05,09,28,20.80
2017,09,05,09,29,20.90
2017,09,05,09,30,20.90
2017,09,05,09,31,20.90
2017,09,05,09,32,20.90
2017,09,05,09,33,21.00
2017,09,05,09,34,21.00
2017,09,05,09,35,21.00
2017,09,05,09,36,20.90
2017,09,05,09,37,21.00
2017,09,05,09,38,21.00
2017,09,05,09,39,21.00
2017,09,05,09,40,21.00
2017,09,05,09,41,21.00
2017,09,05,09,42,21.10
2017,09,05,09,43,21.10
2017,09,05,09,44,21.10
2017,09,05,09,45,21.10
2017,09,05,09,46,21.20
2017,09,05,09,47,21.20
2017,09,05,09,48,21.30
2017,09,05,09,49,21.30
2017,09,05,09,50,21.30
2017,09,05,09,51,21.30
2017,09,05,09,52,21.30
2017,09,05,09,53,21.40
2017,09,05,09,54,21.40
2017,09,05,09,55,21.40
2017,09,05,09,56,21.40
2017,09,05,09,57,21.50
2017,09,05,09,58,21.50
2017,09,05,09,59,21.50
2017,09,05,10,00,21.50
2017,09,05,10,01,21.50
2017,09,05,10,02,21.50
2017,09,05,10,03,21.60
2017,09,05,10,04,21.60
2017,09,05,10,05,21.60
2017,09,05,10,06,21.60
2017,09,05,10,07,21.70
2017,09,05,10,08,21.70
2017,09,05,10,09,21.70
2017,09,05,10,10,21.80
2017,09,05,10,11,21.80
2017,09,05,10,12,21.90
2017,09,05,10,13,21.90
2017,09,05,10,14,22.00
2017,09,05,10,15,22.10
2017,09,05,10,16,22.10
2017,09,05,10,17,22.20
2017,09,05,10,18,22.20
2017,09,05,10,19,22.20
2017,09,05,10,20,22.20
2017,09,05,10,21,22.30
2017,09,05,10,22,22.30
2017,09,05,10,23,22.30
2017,09,05,10,24,22.30
2017,09,05,10,25,22.30
2017,09,05,10,26,22.30
2017,09,05,10,27,22.30
2017,09,05,10,28,22.30
2017,09,05,10,29,22.30
2017,09,05,10,30,22.40
2017,09,05,10,31,22.40
2017,09,05,10,32,22.40
2017,09,05,10,33,22.30
2017,09,05,10,34,22.30
2017,09,05,10,35,22.30
2017,09,05,10,36,22.20
2017,09,05,10,37,22.20
2017,09,05,10,38,22.20
2017,09,05,10,39,22.20
2017,09,05,10,40,22.10
2017,09,05,10,41,22.10
2017,09,05,10,42,22.00
2017,09,05,10,43,22.00
2017,09,05,10,44,21.90
2017,09,05,10,45,21.80
2017,09,05,10,46,21.80
2017,09,05,10,47,21.80
2017,09,05,10,48,21.80
2017,09,05,10,49,21.80
2017,09,05,10,50,21.80
2017,09,05,10,51,21.80
2017,09,05,10,52,21.80
2017,09,05,10,53,21.80
2017,09,05,10,54,21.80
2017,09,05,10,55,21.80
2017,09,05,10,56,21.80
2017,09,05,10,57,21.80
2017,09,05,10,58,21.80
2017,09,05,10,59,21.90
2017,09,05,11,00,21.90
2017,09,05,11,01,22.00
2017,09,05,11,02,22.10
2017,09,05,11,03,22.10
2017,09,05,11,04,22.20
2017,09,05,11,05,22.30
2017,09,05,11,06,22.30
2017,09,05,11,07,22.30
2017,09,05,11,08,22.40
2017,09,05,11,09,22.40
2017,09,05,11,10,22.50
2017,09,05,11,11,22.50
2017,09,05,11,12,22.50
2017,09,05,11,13,22.50
2017,09,05,11,14,22.40
2017,09,05,11,15,22.30
2017,09,05,11,16,22.30
2017,09,05,11,17,22.30
2017,09,05,11,18,22.20
2017,09,05,11,19,22.20
2017,09,05,11,20,22.20
2017,09,05,11,21,22.20
2017,09,05,11,22,22.20
2017,09,05,11,23,22.20
2017,09,05,11,24,22.10
2017,09,05,11,25,22.10
2017,09,05,11,26,22.00
2017,09,05,11,27,21.90
2017,09,05,11,28,21.90
2017,09,05,11,29,21.90
2017,09,05,11,30,21.90
2017,09,05,11,31,21.90
2017,09,05,11,32,21.80
2017,09,05,11,33,21.80
2017,09,05,11,34,21.80
2017,09,05,11,35,21.80
2017,09,05,11,36,21.70
2017,09,05,11,37,21.70
2017,09,05,11,38,21.70
2017,09,05,11,39,21.60
2017,09,05,11,40,21.60
2017,09,05,11,41,21.60
2017,09,05,11,42,21.60
2017,09,05,11,43,21.60
2017,09,05,11,44,21.60
2017,09,05,11,45,21.60
2017,09,05,11,46,21.60
2017,09,05,11,47,21.60
2017,09,05,11,48,21.50
2017,09,05,11,49,21.50
2017,09,05,11,50,21.50
2017,09,05,11,51,21.60
2017,09,05,11,52,21.60
2017,09,05,11,53,21.60
2017,09,05,11,54,21.60
2017,09,05,11,55,21.60
2017,09,05,11,56,21.60
2017,09,05,11,57,21.60
2017,09,05,11,58,21.60
2017,09,05,11,59,21.70
2017,09,05,12,00,21.80
2017,09,05,12,01,21.80
2017,09,05,12,02,21.90
2017,09,05,12,03,22.00
2017,09,05,12,04,22.00
2017,09,05,12,05,22.10
2017,09,05,12,06,22.10
2017,09,05,12,07,22.20
2017,09,05,12,08,22.20
2017,09,05,12,09,22.20
2017,09,05,12,10,22.30
2017,09,05,12,11,22.30
2017,09,05,12,12,22.30
2017,09,05,12,13,22.30
2017,09,05,12,14,22.30
2017,09,05,12,15,22.30
2017,09,05,12,16,22.30
2017,09,05,12,17,22.30
2017,09,05,12,18,22.30
2017,09,05,12,19,22.30
2017,09,05,12,20,22.40
2017,09,05,12,21,22.30
2017,09,05,12,22,22.40
2017,09,05,12,23,22.40
2017,09,05,12,24,22.40
2017,09,05,12,25,22.40
2017,09,05,12,26,22.40
2017,09,05,12,27,22.50
2017,09,05,12,28,22.50
2017,09,05,12,29,22.60
2017,09,05,12,30,22.60
2017,09,05,12,31,22.60
2017,09,05,12,32,22.60
2017,09,05,12,33,22.50
2017,09,05,12,34,22.50
2017,09,05,12,35,22.50
2017,09,05,12,36,22.40
2017,09,05,12,37,22.40
2017,09,05,12,38,22.40
2017,09,05,12,39,22.40
2017,09,05,12,40,22.50
2017,09,05,12,41,22.50
2017,09,05,12,42,22.60
2017,09,05,12,43,22.60
2017,09,05,12,44,22.60
2017,09,05,12,45,22.70
2017,09,05,12,46,22.70
2017,09,05,12,47,22.70
2017,09,05,12,48,22.70
2017,09,05,12,49,22.70
2017,09,05,12,50,22.80
2017,09,05,12,51,22.80
2017,09,05,12,52,22.80
2017,09,05,12,53,22.80
2017,09,05,12,54,22.90
2017,09,05,12,55,22.90
2017,09,05,12,56,23.00
2017,09,05,12,57,23.00
2017,09,05,12,58,23.10
2017,09,05,12,59,23.10
2017,09,05,13,00,23.20
2017,09,05,13,01,23.20
2017,09,05,13,02,23.30
2017,09,05,13,03,23.30
2017,09,05,13,04,23.40
2017,09,05,13,05,23.50
2017,09,05,13,06,23.50
2017,09,05,13,07,23.60
2017,09,05,13,08,23.60
2017,09,05,13,09,23.70
2017,09,05,13,10,23.70
2017,09,05,13,11,23.70
2017,09,05,13,12,23.80
2017,09,05,13,13,23.80
2017,09,05,13,14,23.80
2017,09,05,13,15,23.90
2017,09,05,13,16,23.90
2017,09,05,13,17,24.00
2017,09,05,13,18,24.00
2017,09,05,13,19,24.10
2017,09,05,13,20,24.10
2017,09,05,13,21,24.20
2017,09,05,13,22,24.20
2017,09,05,13,23,24.20
2017,09,05,13,24,24.20
2017,09,05,13,25,24.20
2017,09,05,13,26,24.20
2017,09,05,13,27,24.20
2017,09,05,13,28,24.20
2017,09,05,13,29,24.20
2017,09,05,13,30,24.20
2017,09,05,13,31,24.30
2017,09,05,13,32,24.30
2017,09,05,13,33,24.40
2017,09,05,13,34,24.40
2017,09,05,13,35,24.40
2017,09,05,13,36,24.50
2017,09,05,13,37,24.50
2017,09,05,13,38,24.60
2017,09,05,13,39,24.60
2017,09,05,13,40,24.70
2017,09,05,13,41,24.80
2017,09,05,13,42,24.80
2017,09,05,13,43,24.80
2017,09,05,13,44,24.80
2017,09,05,13,45,24.80
2017,09,05,13,46,24.80
2017,09,05,13,47,24.80
2017,09,05,13,48,24.80
2017,09,05,13,49,24.80
2017,09,05,13,50,24.80
2017,09,05,13,51,24.90
2017,09,05,13,52,24.90
2017,09,05,13,53,24.90
2017,09,05,13,54,24.90
2017,09,05,13,55,24.90
2017,09,05,13,56,24.90
2017,09,05,13,57,24.90
2017,09,05,13,58,24.90
2017,09,05,13,59,24.80
2017,09,05,14,00,24.80
2017,09,05,14,01,24.80
2017,09,05,14,02,24.80
2017,09,05,14,03,24.80
2017,09,05,14,04,24.80
2017,09,05,14,05,24.80
2017,09,05,14,06,24.80
2017,09,05,14,07,24.80
2017,09,05,14,08,24.80
2017,09,05,14,09,24.80
2017,09,05,14,10,24.80
2017,09,05,14,11,24.80
2017,09,05,14,12,24.80
2017,09,05,14,13,24.70
2017,09,05,14,14,24.70
2017,09,05,14,15,24.60
2017,09,05,14,16,24.60
2017,09,05,14,17,24.50
2017,09,05,14,18,24.40
2017,09,05,14,19,24.40
2017,09,05,14,20,24.40
2017,09,05,14,21,24.40
2017,09,05,14,22,24.40
2017,09,05,14,23,24.40
2017,09,05,14,24,24.40
2017,09,05,14,25,24.40
2017,09,05,14,26,24.30
2017,09,05,14,27,24.30
2017,09,05,14,28,24.30
2017,09,05,14,29,24.20
2017,09,05,14,30,24.20
2017,09,05,14,31,24.20
2017,09,05,14,32,24.20
2017,09,05,14,33,24.20
2017,09,05,14,34,24.20
2017,09,05,14,35,24.20
2017,09,05,14,36,24.20
2017,09,05,14,37,24.10
2017,09,05,14,38,24.10
2017,09,05,14,39,24.10
2017,09,05,14,40,24.10
2017,09,05,14,41,24.20
2017,09,05,14,42,24.20
2017,09,05,14,43,24.20
2017,09,05,14,44,24.20
2017,09,05,14,45,24.10
2017,09,05,14,46,24.10
2017,09,05,14,47,24.20
2017,09,05,14,48,24.20
2017,09,05,14,49,24.20
2017,09,05,14,50,24.20
2017,09,05,14,51,24.20
2017,09,05,14,52,24.20
2017,09,05,14,53,24.20
2017,09,05,14,54,24.30
2017,09,05,14,55,24.30
2017,09,05,14,56,24.30
2017,09,05,14,57,24.30
2017,09,05,14,58,24.30
2017,09,05,14,59,24.30
2017,09,05,15,00,24.40
2017,09,05,15,01,24.40
2017,09,05,15,02,24.40
2017,09,05,15,03,24.40
2017,09,05,15,04,24.40
2017,09,05,15,05,24.40
2017,09,05,15,06,24.40
2017,09,05,15,07,24.40
2017,09,05,15,08,24.30
2017,09,05,15,09,24.30
2017,09,05,15,10,24.20
2017,09,05,15,11,24.20
2017,09,05,15,12,24.20
2017,09,05,15,13,24.20
2017,09,05,15,14,24.30
2017,09,05,15,15,24.30
2017,09,05,15,16,24.30
2017,09,05,15,17,24.30
2017,09,05,15,18,24.40
2017,09,05,15,19,24.40
2017,09,05,15,20,24.40
2017,09,05,15,21,24.40
2017,09,05,15,22,24.50
2017,09,05,15,23,24.50
2017,09,05,15,24,24.50
2017,09,05,15,25,24.40
2017,09,05,15,26,24.40
2017,09,05,15,27,24.40
2017,09,05,15,28,24.50
2017,09,05,15,29,24.40
2017,09,05,15,30,24.50
2017,09,05,15,31,24.50
2017,09,05,15,32,24.50
2017,09,05,15,33,24.50
2017,09,05,15,34,24.60
2017,09,05,15,35,24.70
2017,09,05,15,36,24.70
2017,09,05,15,37,24.70
2017,09,05,15,38,24.70
2017,09,05,15,39,24.70
2017,09,05,15,40,24.60
2017,09,05,15,41,24.60
2017,09,05,15,42,24.60
2017,09,05,15,43,24.60
2017,09,05,15,44,24.60
2017,09,05,15,45,24.60
2017,09,05,15,46,24.60
2017,09,05,15,47,24.60
2017,09,05,15,48,24.70
2017,09,05,15,49,24.70
2017,09,05,15,50,24.70
2017,09,05,15,51,24.80
2017,09,05,15,52,24.80
2017,09,05,15,53,24.90
2017,09,05,15,54,24.90
2017,09,05,15,55,25.00
2017,09,05,15,56,25.00
2017,09,05,15,57,25.10
2017,09,05,15,58,25.10
2017,09,05,15,59,25.20
2017,09,05,16,00,25.20
2017,09,05,16,01,25.30
2017,09,05,16,02,25.30
2017,09,05,16,03,25.40
2017,09,05,16,04,25.50
2017,09,05,16,05,25.50
2017,09,05,16,06,25.60
2017,09,05,16,07,25.60
2017,09,05,16,08,25.70
2017,09,05,16,09,25.70
2017,09,05,16,10,25.70
2017,09,05,16,11,25.70
2017,09,05,16,12,25.80
2017,09,05,16,13,25.80
2017,09,05,16,14,25.80
2017,09,05,16,15,25.80
2017,09,05,16,16,25.70
2017,09,05,16,17,25.70
2017,09,05,16,18,25.70
2017,09,05,16,19,25.70
2017,09,05,16,20,25.70
2017,09,05,16,21,25.80
2017,09,05,16,22,25.80
2017,09,05,16,23,25.80
2017,09,05,16,24,25.80
2017,09,05,16,25,25.80
2017,09,05,16,26,25.90
2017,09,05,16,27,25.90
2017,09,05,16,28,25.90
2017,09,05,16,29,25.90
2017,09,05,16,30,25.90
2017,09,05,16,31,25.90
2017,09,05,16,32,25.90
2017,09,05,16,33,25.90
2017,09,05,16,34,25.90
2017,09,05,16,35,25.90
2017,09,05,16,36,25.90
2017,09,05,16,37,25.90
2017,09,05,16,38,25.90
2017,09,05,16,39,25.80
2017,09,05,16,40,25.70
2017,09,05,16,41,25.60
2017,09,05,16,42,25.60
2017,09,05,16,43,25.50
2017,09,05,16,44,25.50
2017,09,05,16,45,25.50
2017,09,05,16,46,25.50
2017,09,05,16,47,25.60
2017,09,05,16,48,25.60
2017,09,05,16,49,25.60
2017,09,05,16,50,25.60
2017,09,05,16,51,25.60
2017,09,05,16,52,25.70
2017,09,05,16,53,25.70
2017,09,05,16,54,25.70
2017,09,05,16,55,25.70
2017,09,05,16,56,25.70
2017,09,05,16,57,25.70
2017,09,05,16,58,25.80
2017,09,05,16,59,25.80
2017,09,05,17,00,25.80
2017,09,05,17,01,25.80
2017,09,05,17,02,25.80
2017,09,05,17,03,25.80
2017,09,05,17,04,25.80
2017,09,05,17,05,25.80
2017,09,05,17,06,25.70
2017,09,05,17,07,25.70
2017,09,05,17,08,25.60
2017,09,05,17,09,25.60
2017,09,05,17,10,25.60
2017,09,05,17,11,25.60
2017,09,05,17,12,25.60
2017,09,05,17,13,25.60
2017,09,05,17,14,25.50
2017,09,05,17,15,25.50
2017,09,05,17,16,25.40
2017,09,05,17,17,25.30
2017,09,05,17,18,25.20
2017,09,05,17,19,25.10